Regional Weather Roundup
Issued by NWS Cleveland, OH

Home | Current Version | Previous Version | Graphics & Text | Print | Product List | Glossary On
Versions: 1 2 3 4 5 6 7 8 9 10 11 12 13 14 15 16 17 18 19 20 21 22 23 24 25 26 27 28 29 30 31 32 33 34 35 36 37 38 39 40 41 42 43 44 45 46 47 48 49 50
000
ASUS41 KCLE 271210
RWRCLE
OHIO REGIONAL WEATHER ROUNDUP
NATIONAL WEATHER SERVICE WILMINGTON, OH
800 AM EDT FRI MAR 27 2015

NOTE: "FAIR" INDICATES FEW OR NO CLOUDS BELOW 12,000 FEET WITH NO
SIGNIFICANT WEATHER AND/OR OBSTRUCTIONS TO VISIBILITY.

OHZ001>008-015>018-024>027-034-035-043-044-271300-
   NORTHWEST OHIO

CITY           SKY/WX    TMP DP  RH WIND       PRES   REMARKS
DEFIANCE       CLEAR     25  14  63 N10       30.03R WCI  15
FINDLAY        MOCLDY    30  17  58 NW20      29.97R WCI  17
TOLEDO EXPRESS MOCLDY    24  14  65 N14       30.00R WCI  12
TOLEDO EXEC    CLEAR     25  14  63 NW15      30.01R WCI  13
LIMA           FLURRIES  31  22  69 N12       29.96R WCI  22
$$

OHZ009>014-019>023-028>033-038-089-271300-
   NORTHEAST OHIO

CITY           SKY/WX    TMP DP  RH WIND       PRES   REMARKS
CLE-HOPKINS    FLURRIES  29  21  72 N16       29.96R WCI  17
CLE-LAKEFRONT  CLOUDY    28  22  78 N15       29.94R WCI  16
CUY CO. ARPT   CLOUDY    28  23  80 N12       29.92S WCI  18
LORAIN-ELYRIA  CLOUDY    29  22  75 N16       29.94R WCI  17
ASHTABULA      CLOUDY    27  23  85 N10       29.90S WCI  17
AKRON-CANTON   FLURRIES  31  24  75 N10       29.88R WCI  22
WOOSTER        FLURRIES  30  25  81 N17       29.90R WCI  18
MANSFIELD      CLOUDY    28  18  66 NW16      29.91R WCI  16
YOUNGSTOWN     FLURRIES  29  24  82 N14       29.87R WCI  18
$$

OHZ042-051>053-060>062-070>072-077>081-271300-
  SOUTHWEST OHIO

CITY           SKY/WX    TMP DP  RH WIND       PRES   REMARKS
CINC-COVINGTON PTCLDY    31  24  75 N8        29.99R WCI  23
CINC-LUNKEN    CLEAR     32  24  72 N7        30.02R WCI  26
HAMILTON       CLEAR     29  25  85 CALM      30.01R
DAYTON         PTCLDY    30  23  75 NW8       29.98R WCI  22
WRIGHT-PAT AFB CLEAR     29  24  82 NW6       29.97R WCI  23
DAYTON GENERAL CLEAR     30  24  78 NW6       29.97R WCI  24
WILMINGTON     CLEAR     29  22  75 NW6       29.96R WCI  23
$$

OHZ036-037-039>041-045>050-054>059-063>069-073>076-082>088-271300-
  CENTRAL AND SOUTHEAST OHIO

CITY           SKY/WX    TMP DP  RH WIND       PRES   REMARKS
COLUMBUS       PTCLDY    30  22  72 NW8       29.94R WCI  22
OSU AIRPORT    PTCLDY    29  22  75 NW8       29.94R WCI  21
BOLTON FIELD   CLEAR     27  23  86 NW3       29.96R
RICKENBACK AFB PTCLDY    29  23  79 NW6       29.95R WCI  23
NEWARK         CLEAR     29  23  78 NW7       29.93R WCI  22
MARION         CLOUDY    31  22  69 N9        29.95R WCI  23
LANCASTER      CLEAR     31  24  75 NW7       29.94R WCI  24
ZANESVILLE     CLOUDY    30  23  75 NW5       29.91R WCI  25
NEW PHILLY     CLOUDY    34  26  72 NW8       29.90R WCI  27
$$



USA.gov is the U.S. government's official web portal to all federal, state and local government web resources and services.